Location: Cawdor
(57.5167°N, 3.9333°W)
Time: 14:27:34
(UTC+00:00)

Daily predictions for brighter satellites

Satellite Brightness Start Highest point End
(mag) Time Altitude Azimuth Time Altitude Azimuth Time Altitude Azimuth
Cosmos 1709 Rocket 4.4 22:13:53 10° SSW 22:20:12 71° WNW 22:26:37 10° N
Cosmos 2237 Rocket 3.3 22:16:07 10° SSE 22:20:47 27° ESE 22:25:28 10° NE
Cosmos 2333 4.2 22:17:03 10° SSW 22:22:41 75° ESE 22:28:26 10° NE
Cosmos 2219 Rocket 2.3 22:17:22 10° SSW 22:22:50 58° ESE 22:28:22 10° NE
Cosmos 1538 Rocket 4.1 22:18:56 10° SSW 22:24:13 63° ESE 22:29:29 10° NNE
Cosmos 1315 Rocket 3.8 22:20:50 10° NNW 22:24:45 44° W 22:28:40 10° S
Cosmos 2360 Rocket 2.6 22:19:15 10° SW 22:24:54 72° NW 22:30:37 10° NE
NOSS 3-3 (A) 4.3 22:19:27 10° SSW 22:25:08 46° SE 22:31:36 10° ENE
NOSS 3-3 (C) 4.3 22:19:33 10° SSW 22:25:16 46° SE 22:31:43 10° ENE
Thor Agena Rocket 4.5 22:23:46 10° NNE 22:28:21 32° E 22:32:53 10° SSE
Meteor 2-2 Rocket 4.5 22:23:36 10° NNW 22:29:29 77° WSW 22:35:13 10° S
Cosmos 2333 Rocket 2.3 22:27:16 10° SSW 22:32:56 69° ESE 22:38:40 10° NE
Cosmos 2221 2.9 22:30:00 10° NNW 22:34:22 64° W 22:38:40 10° S
Cosmos 2184 Rocket 4.1 22:28:37 10° S 22:34:50 71° E 22:41:09 10° NNE
Iridium 2 4.1 22:34:48 10° N 22:38:35 54° ENE 22:42:20 10° SSE
Cosmos 1371 Rocket 4.1 22:33:24 10° NNW 22:38:41 86° ENE 22:44:00 10° SSE
ATLAS 2AS CENTAUR R/B 3.0 22:31:07 10° NW 22:38:49 69° SW 22:45:53 10° SE
BREEZE-M DEB (TANK) 3.3 22:34:40 10° WSW 22:38:52 24° SSW 22:41:13 10° SE
Cosmos 1818 3.7 22:33:37 10° SW 22:39:05 85° NW 22:44:35 10° NE
Cosmos 773 Rocket 4.2 22:35:43 10° SW 22:41:02 78° WNW 22:46:22 10° NNE
GEOS 3 Rocket 3.7 22:35:42 10° NE 22:41:07 80° SE 22:46:32 10° SW
EO 1 Del DPAF 4.4 22:38:17 10° NE 22:41:37 29° E 22:44:55 10° SSE
SL-16 R/B 3.9 22:39:05 10° WSW 22:44:22 38° NW 22:49:42 10° NNE
Aureole 2 Rocket 2.4 22:43:18 10° NNW 22:46:01 51° ENE 22:48:51 10° SE
Cosmos 1892 2.9 22:42:21 10° S 22:46:04 57° E 22:49:51 10° NNE
Cosmos 1606 3.7 22:44:46 10° N 22:48:26 38° ENE 22:52:04 10° SE
Cosmos 2278 Rocket 2.8 22:43:54 10° NW 22:49:20 47° WSW 22:54:43 10° S
USA 215 3.5 22:44:02 10° ENE 22:50:24 49° SSE 22:56:43 10° SW
Cosmos 2297 3.9 22:45:07 10° NW 22:50:55 77° NE 22:56:39 10° SE
Cosmos 1420 Rocket 4.3 22:49:35 10° NNW 22:54:51 64° NE 23:00:07 10° SE
ATLAS 5 CENTAUR R/B 1.8 22:52:06 10° WSW 22:56:30 83° NNW 23:01:38 10° NE
Cosmos 1943 Rocket 2.9 22:51:52 10° NW 22:57:29 54° NE 23:03:02 10° ESE
Cosmos 158 Rocket 4.4 22:53:17 10° S 22:57:50 41° ESE 23:02:28 10° NE
Lacrosse 5 rocket 1.2 22:53:49 10° W 22:57:59 80° S 23:01:55 10° ESE
Cosmos 2056 Rocket 3.7 22:57:12 10° NNW 23:02:37 77° WSW 23:07:58 10° SSE
Spot 4 3.9 22:59:07 10° SSE 23:03:55 79° WSW 23:08:44 10° NNW
SL-16 R/B 3.6 23:00:51 10° SSE 23:05:12 23° ESE 23:09:36 10° NE
Cosmos 2058 2.9 23:01:40 10° S 23:05:50 87° ESE 23:10:00 10° NNE
Cosmos 1408 2.7 23:03:24 10° S 23:06:53 60° E 23:10:25 10° NNE
Nadezhda 3 Rocket 4.3 23:01:02 10° NNW 23:07:24 70° W 23:13:41 10° S
Cosmos 2154 Rocket 4.0 23:08:29 10° S 23:14:42 86° E 23:20:58 10° NNE
Cosmos 332 Rocket 4.2 23:11:31 10° NNW 23:16:18 62° NE 23:21:04 10° SE
Cosmos 1076 Rocket 3.6 23:13:21 10° SSW 23:17:39 83° WNW 23:21:58 10° NNE
Cosmos 2341 Rocket 4.3 23:11:47 10° S 23:17:50 59° E 23:23:55 10° NNE
In-Cosmos 22 Rocket 4.2 23:12:42 10° SSW 23:18:01 80° WNW 23:23:24 10° NNE
Cosmos 1680 Rocket 3.6 23:16:42 10° SSW 23:21:58 66° ESE 23:27:17 10° NNE
Cosmos 2074 Rocket 4.4 23:15:54 10° SSW 23:22:04 62° WNW 23:28:15 10° N
Cosmos 405 4.4 23:22:19 10° N 23:25:33 31° ENE 23:28:44 10° SE
USA 267 4.2 23:21:24 11° SSE 23:26:54 30° SW 23:32:35 10° WNW
Cosmos 2151 3.1 23:23:52 11° S 23:27:52 63° E 23:32:06 10° NNE
Helios 1A 3.5 23:24:54 10° SE 23:28:58 55° ENE 23:33:05 10° N
Cosmos 1452 Rocket 3.6 23:24:23 10° NNW 23:29:42 78° ENE 23:34:59 10° SE
CZ-4C R/B 3.0 23:23:45 10° WNW 23:30:20 78° NNE 23:38:13 10° ESE
COSMOS 2455 2.9 23:25:23 10° NW 23:31:29 89° SW 23:37:32 10° SE
Cosmos 2322 Rocket 4.4 23:27:08 10° W 23:32:00 29° NNW 23:36:54 10° NNE
Cosmos 1933 3.4 23:30:34 10° N 23:34:37 79° ENE 23:38:13 13° SSE
Cosmos 1151 Rocket 3.0 23:31:45 10° NNW 23:36:09 86° ENE 23:40:03 13° SSE
Cosmos 1825 2.1 23:32:56 11° S 23:36:30 84° E 23:40:20 10° NNE
SL-8 Rocket 4.2 23:30:59 11° S 23:36:46 60° E 23:42:50 10° NNE
EO 1 Delta rocket 4.2 23:32:18 10° N 23:37:10 85° W 23:42:59 10° SSW
Cosmos 1340 3.8 23:34:23 12° SSE 23:37:22 31° E 23:40:44 10° NNE
ALOS 2 2.7 23:35:27 12° S 23:39:26 70° WSW 23:43:51 10° NNW
Cosmos 923 Rocket 4.1 23:34:17 10° SSW 23:39:34 82° WNW 23:44:55 10° NNE
Cosmos 1408 Rocket 4.4 23:35:56 12° SSE 23:39:38 38° E 23:43:45 10° NNE
SL-16 R/B 4.4 23:36:48 10° E 23:41:50 26° NE 23:46:53 10° N
Cosmos 1727 Rocket 4.2 23:35:44 10° N 23:41:57 68° ENE 23:48:04 11° SSE
Cosmos 2369 Rocket 2.5 23:36:30 10° NW 23:42:07 70° NE 23:47:43 10° SE
APEX 2.3 23:39:21 10° NW 23:42:08 68° SW 23:44:22 14° SSE
GP-B 3.1 23:40:21 10° N 23:44:50 83° E 23:48:50 13° S
Cosmos 371 Rocket 3.4 23:41:10 10° NNW 23:46:01 68° WSW 23:50:25 12° SSE
Cosmos 1980 3.7 23:40:22 10° SSW 23:46:01 85° SE 23:51:43 10° NE
IRIDIUM 103 4.5 23:41:42 12° S 23:46:29 68° E 23:51:42 10° N
Cosmos 44 4.1 23:43:37 13° S 23:46:50 29° ESE 23:50:42 10° ENE
SL-4 R/B 0.3 23:48:59 19° SSE 23:50:18 79° WSW 23:52:24 10° NNW
COSMOS 2428 3.5 23:45:47 10° WSW 23:51:22 55° NW 23:56:59 10° NE
Helios 1B rocket 4.4 23:49:04 10° NE 23:51:59 18° E 23:54:53 10° SE
Terra 4.3 23:53:21 10° WSW 23:55:18 12° W 23:57:15 10° WNW
Cosmos 1782 3.1 23:51:36 10° N 23:55:34 61° ENE 23:59:10 12° SSE
